{"data":{"norad_id":39191,"epoch":"2026-05-24T20:26:40.921728Z","epoch_age_seconds":90865,"freshness":"FRESH","line1":"1 39191U 13031D   26144.85186252 -.00000024  00000+0  00000+0 0  9990","line2":"2 39191   0.0689 356.5782 0005388  66.0666 297.4094  5.00116044235509","mean_motion":5.00116044,"eccentricity":0.0005388,"inclination_deg":0.0689,"raan_deg":356.5782,"arg_perigee_deg":66.0666,"mean_anomaly_deg":297.4094,"bstar":0,"rev_number":23550,"period_min":287.93317416547,"perigee_km":8058.0973077611,"apogee_km":8073.6621802044,"semimajor_km":14444.016743983,"source":"CELESTRAK","updated_at":"2026-05-25T13:38:14.507641Z"}}